Regional Weather Roundup
Issued by NWS Sterling, VA

Home | Current Version | Previous Version | Graphics & Text | Print | Product List | Glossary On
Versions: 1 2 3 4 5 6 7 8 9 10 11 12 13 14 15 16 17 18 19 20 21 22 23 24 25 26 27 28 29 30 31 32 33 34 35 36 37 38 39 40 41 42 43 44 45 46 47 48 49 50
196
ASUS41 KLWX 241611
RWRLWX

REGIONAL WEATHER ROUNDUP
NATIONAL WEATHER SERVICE BALTIMORE MD/WASHINGTON DC
1100 AM EST SAT FEB 24 2018

Note: "FAIR" indicates few or no clouds below 12,000 feet
with no significant weather and/or obstructions to visibility.
 TC=TEMPERATURE CELSIUS

 * =Non NWS site. Station does not report precipitation (e.g. rain,
    snow, etc.), thunder, or fog.

DCZ001-MDZ009-015-VAZ040>042-051-053>054-241700-
WASHINGTON METRO

CITY           SKY/WX    TMP DP  RH WIND       PRES   REMARKS
WASHINGTON NAT FOG       51  51 100 NE9       30.16F VSB 1
DULLES         FOG       50  50 100 NE6       30.16R VSB 1
ANDREWS AFB    FOG       52  52 100 E6        30.15S VSB 1/2
FT BELVOIR     CLOUDY    52  52 100 E3        30.15F
QUANTICO       CLOUDY    53  53 100 CALM      30.16F FOG
COLLEGE PARK*  CLOUDY    48  48  99 NE5       30.16F
LEESBURG*      LGT RAIN  45  45 100 N5        30.18S
MANASSAS*      CLOUDY    53  51  93 N6        30.16S
GAITHERSBURG*  CLOUDY    48  48 100 NE3       30.16F

$$

MDZ006>007-011-014-241700-
BALTIMORE METRO

CITY           SKY/WX    TMP DP  RH WIND       PRES   REMARKS
BWI AIRPORT    LGT RAIN  46  46 100 NE6       30.18R VSB 3/4
MD SCIENCE CTR   N/A     50  48  93 MISG      30.18F
MARTIN STATE   CLOUDY    48  48 100 CALM      30.21R FOG
ANNAPOLIS      FOG       49  49 100 NE7       30.17F VSB 1/4
FORT MEADE*    CLOUDY    46  46 100 CALM      30.19F VSB 3/4

$$

MDZ012-015-019>023-241700-
MARYLAND EASTERN SHORE

CITY           SKY/WX    TMP DP  RH WIND       PRES   REMARKS
OCEAN CITY     FOG       49  49 100 S3        30.18F VSB 1/2
SALISBURY      CLOUDY    58  57  97 W5        30.16F
BAY BRIDGE AP* FOG       48  48 100 N5        30.18S VSB 1/4
CAMBRIDGE*     CLOUDY    54  54 100 S3        30.17F FOG
EASTON*        CLOUDY    54  52  94 CALM      30.20F FOG

$$

MDZ017>025-241700-
SOUTHERN MARYLAND

CITY           SKY/WX    TMP DP  RH WIND       PRES   REMARKS
PATUXENT RIVER FOG       50  50 100 SE7       30.16S VSB 1/4
ST INIGOES     CLOUDY    55  55 100 CALM      30.15F FOG
LEONARDTOWN*   CLOUDY    57  54  88 SW7       30.17F

$$

MDZ003>005-241700-
NORTH CENTRAL MARYLAND

CITY           SKY/WX    TMP DP  RH WIND       PRES   REMARKS
FREDERICK*     LGT RAIN  48  48 100 CALM      30.21S
HAGERSTOWN APT CLOUDY    47  45  93 N8        30.17R FOG
WESTMINSTER*   NOT AVBL

$$

MDZ501>502-241700-
WESTERN MARYLAND

CITY           SKY/WX    TMP DP  RH WIND       PRES   REMARKS
OAKLAND*       CLOUDY    48  48 100 E6        30.12F VSB<1/4
CUMBERLAND*    CLOUDY    46  46 100 CALM      30.19S

$$

VAZ025>031-241700-
SHENANDOAH VALLEY

CITY           SKY/WX    TMP DP  RH WIND       PRES   REMARKS
WINCHESTER*    CLOUDY    45  43  93 N7        30.17S FOG
FRONT ROYAL*   CLOUDY    46  45  93 NE7       30.13F
LURAY*         PTSUNNY   50  48  93 NE6       30.11F
NEW MARKET*    CLOUDY    53  51  94 E3        30.11S
STAUNTON*      CLOUDY    60  55  86 S3        30.13S
WAYNESBORO*    CLOUDY    60  56  87 S6        30.12S

$$

WVZ021-048>050-054>055-241700-
EASTERN WEST VIRGINIA PANHANDLE

CITY           SKY/WX    TMP DP  RH WIND       PRES   REMARKS
MARTINSBURG    LGT RAIN  46  45  96 N7        30.16R FOG
PETERSBURG*    LGT RAIN  48  46  92 CALM      30.13R

$$

VAZ036>039-050-241700-
CENTRAL FOOTHILLS

CITY           SKY/WX    TMP DP  RH WIND       PRES   REMARKS
CHARLOTTESVILL LGT RAIN  54  51  90 CALM      30.13F
CULPEPER*      LGT RAIN  52  51  95 N3        30.15S
ORANGE*        CLOUDY    52  50  93 CALM      30.14R FOG
GORDONSVILLE*  PTSUNNY   56  55  96 CALM      30.12S
WARRENTON*     DRIZZLE   53  51  91 N6        30.14S

$$

VAZ055>057-241700-
NORTH AND CENTRAL PIEDMONT

CITY           SKY/WX    TMP DP  RH WIND       PRES   REMARKS
FREDERICKSBRG* FAIR      61  57  87 CALM      30.12F
STAFFORD*      CLOUDY    57  56  98 CALM      30.18F FOG

$$

NCZ024-NYZ072-PAZ021-071-VAZ022-071-241700-
OTHER REGIONAL OBSERVATIONS

CITY           SKY/WX    TMP DP  RH WIND       PRES   REMARKS
NEW YORK CITY  CLOUDY    53  39  59 NW6       30.18S
PHILADELPHIA   CLOUDY    48  45  89 SW6       30.21R FOG
PITTSBURGH     LGT RAIN  46  43  89 NE8       30.13S
ROANOKE        LGT RAIN  55  52  89 E5        30.17F
RICHMOND       PTSUNNY   67  59  75 S13       30.14F
RALEIGH        PTSUNNY   67  60  78 SW16      30.21F

$$

ANZ530>537-241700-
MARINE OBSERVATIONS

STATION/POSITION TIME  TEMP    WIND        PRES
                       AIR SEA DIR/SP/G
                 (UTC) (F)     (DEG/KT/KT) (MB)
THOMAS PT LIGHT  1600   45 42   20/  8/  9   N/A
BALT KEY BRIDGE  1542   46     360/  3/  4 1022.3R
COVE POINT       1542   45     170/  4/  4 1022.0F
LEWISETTA        1542   47 48   90/  3/  3 1021.3F
SOLOMONS ISLAND  1542   47 43   70/  6/  6 1020.9F
PINEY POINT      1542          130/  4/  4   N/A

$$





USA.gov is the U.S. government's official web portal to all federal, state and local government web resources and services.